www.pogodaiklimat.ru

Погода и климат >> Архив погоды >> Бельгия >> Бовешен


ПОГОДА в Бовешене

  • Прогноз погоды в Бовешене
  • Монитор погоды в Бовешене

АРХИВ ПОГОДЫ в Бовешене

Время (UTC), дата Ветер
(напр.,м/с)
 
Видим.   Явления Облачность Т
(С)
Тd
(С)
f
(%)
Тe
(С)
Тes
(С)
Комфортность P
(гПа)
Po
(гПа)
Тmin
(С)
Tmax
(С)
R
(мм)
R24
(мм)
S
(см)
13 13.06 ЮЗ 5
{14}
12 км в посл. час ливневой дождь 9/9 800 м
[Cu Sc]
+15.8 +9.8 67 +15 +16 1012.0 998.7
14 13.06 Ю 6
{11}
20 км в посл. час ливневой дождь 8/4 900 м
[Cu Sc Ci fib]
+18.0 +10.0 59 +17 +20 1011.3 998.2
15 13.06 Ю 8
{14}
20 км 8/4 1050 м
[Cu Sc Ci fib]
+17.3 +9.1 59 +16 +17 1011.2 998.0
16 13.06 ЮЗ 8
{13}
10 км в посл. час ливневой дождь 8/4 1140 м
[Cu Sc Ci fib]
+18.9 +9.0 53 +19 +19 1011.1 998.0
17 13.06 Ю 9
{14}
20 км н/о +17.8 +9.1 57 +17 +17 1010.8 997.7
18 13.06 Ю 6
{14}
20 км {дождь} н/о +17.3 +9.9 62 +16 +16 1011.5 998.3 +19.4 0.6
19 13.06 Ю 4
{9}
20 км н/о +16.7 +10.4 66 +16 +16 1011.7 998.6
20 13.06
{8}
20 км н/о +15.8 +10.6 71 1012.3 999.1
21 13.06 нст 1
{9}
20 км н/о +13.8 +10.9 83 +14 +14 1013.5 1000.1
22 13.06
{2}
20 км н/о +13.8 +10.8 82 1013.8 1000.5
23 13.06
{2}
20 км н/о +13.1 +10.9 86 1014.0 1000.5
00 14.06 нст 1
{9}
20 км н/о +12.7 +10.8 88 +13 +13 1013.7 1000.2
01 14.06
{2}
20 км н/о +12.8 +10.3 85 1013.2 999.8
02 14.06
{1}
20 км н/о +12.5 +9.7 83 1013.0 999.5
03 14.06 нст 1
{2}
20 км н/о +12.6 +9.4 81 +13 +13 1013.0 999.5
04 14.06
{2}
20 км н/о +13.3 +9.3 77 1013.2 999.7
05 14.06 ЮВ 3
{4}
20 км н/о +13.1 +9.4 78 +12 +12 1013.6 1000.1
06 14.06 Ю 4
{6}
20 км слаб. дождь 9/4 1500 м
[Sc Ac As]
+14.0 +10.3 78 +13 +13 1014.7 1007.7 +12.1 +12.1 0.0
07 14.06 ЮВ 3
{3}
8000 м слаб. дождь 9/5 900 м
[Sc Ac As]
+13.0 +11.2 89 +12 +13 1014.0 1000.7
08 14.06 Ю 3
{5}
15 км в посл. час дождь 8/3 1200 м
[Sc Ac trans]
+16.3 +13.1 81 +16 +19 1013.7 1000.3
09 14.06 Ю 4
{8}
15 км {дождь} 6/1 750 м
[Cu hum Ac trans Ci fib]
+18.2 +12.0 67 +18 +24 1014.2 1001.1
10 14.06 Ю 4
{9}
20 км {дождь} 6/1 840 м
[Cu hum Ac trans Ci fib]
+19.9 +12.9 64 +22 +29 комфорт 1014.6 1001.3
11 14.06 ЮЗ 4
{8}
20 км 6/1 900 м
[Cu hum Ac trans]
+20.0 +12.5 62 +22 +29 комфорт 1014.8 1001.7
12 14.06 ЮЗ 5
{9}
20 км {дождь} 5/1 1000 м
[Cu hum Ac trans Ci fib]
+21.5 +13.3 60 +24 +31 комфорт 1014.7 1001.7 1
13 14.06 ЮЗ 5
{8}
20 км 5/1 1050 м
[Cu hum Ac trans Ci fib]
+22.2 +13.0 56 +25 +31 комфорт 1014.3 1001.3
14 14.06 ЮЗ 5
{9}
20 км 4/3 1200 м
[Cu hum Ci fib]
+22.3 +12.4 53 +25 +30 комфорт 1013.7 1000.7
15 14.06 ЮЗ 2
{9}
20 км 4/3 1260 м
[Cu hum Ci fib]
+23.4 +12.9 52 +26 +34 жарко 1013.1 1000.1
16 14.06 ЮЗ 3
{5}
20 км 4/3 1260 м
[Cu hum Ci fib]
+24.0 +13.7 53 +26 +30 жарко 1012.7 999.8
17 14.06
{4}
20 км 6/4 1380 м
[Cu hum Ac trans Ci fib]
+23.6 +13.2 52 1012.3 999.5
18 14.06 С 2
{9}
20 км 6/4 1500 м
[Cu hum Ac trans Ci fib]
+21.6 +14.1 62 +24 +25 комфорт 1012.2 999.2 +24.1 1
19 14.06
{2}
20 км н/о +20.8 +14.2 66 1012.2 999.2
20 14.06
{2}
20 км н/о +19.8 +13.8 68 1012.5 999.4
21 14.06 С 2
{3}
20 км н/о +19.0 +13.8 72 +21 +21 комфорт 1012.6 999.5
22 14.06 С 2
{3}
20 км слаб. морось {дождь} н/о +18.0 +13.6 75 +19 +19 1012.2 999.1
23 14.06
{4}
20 км {морось} н/о +17.1 +14.4 84 1011.8 998.6
00 15.06 С 3
{5}
16 км слаб. морось {дождь} н/о +16.5 +14.5 88 +16 +16 1010.7 997.5 0.1
01 15.06
{5}
4400 м дождь {морось} н/о +15.3 +14.3 94 1010.8 997.6
02 15.06
{2}
1600 м дождь н/о +15.0 +14.4 96 1011.0 997.7
03 15.06 нст 1
{5}
1400 м дождь {морось} н/о +14.6 +14.3 98 +15 +15 1011.1 997.8
04 15.06 З 3
{5}
1400 м дождь н/о +13.0 +12.6 97 +12 +12 1011.7 998.3
05 15.06 С 3
{7}
7000 м {дождь} н/о +13.0 +12.5 97 +12 +12 1011.2 997.7
06 15.06 ЮЗ 3
{7}
2300 м слаб. дождь {морось} н/о +13.3 +12.9 97 +12 +12 1012.6 999.1 +12.5 16
07 15.06 ЮЗ 4
{5}
2600 м слаб. дождь {морось} н/о +13.6 +13.1 97 +12 +12 1013.2 999.9
08 15.06 ЮЗ 2
{4}
3000 м слаб. дождь 10/10 90 м
[St]
+14.4 +13.7 96 +14 +14 1013.7 1000.2
09 15.06 ЮЗ 2
{5}
3500 м в посл. час дождь {морось} 10/10 150 м
[Frnb]
+15.5 +14.6 94 +15 +15 1014.2 1000.8
10 15.06 ЮЗ 4
{6}
8000 м 9/9 180 м
[Frnb]
+16.9 +15.0 89 +16 +17 1014.6 1001.2
11 15.06 ЮЗ 6
{8}
10 км 8/8 400 м
[Sc Ci fib]
+19.1 +15.1 78 +20 +21 1015.0 1001.8
12 15.06 З 5
{9}
15 км 4/4 660 м
[Sc Ci fib]
+19.6 +14.1 71 +21 +27 комфорт 1015.6 1002.5 0.6
13 15.06 З 4
{8}
20 км 4/4 750 м
[Sc Ci fib]
+19.2 +11.9 63 +20 +27 1015.3 1002.2
14 15.06 З 3
{5}
20 км 5/5 870 м
[Cu Sc Ci fib]
+20.2 +12.3 60 +22 +28 комфорт 1015.3 1002.2
15 15.06 ЮЗ 4
{8}
20 км н/о +21.4 +9.9 48 +23 +23 комфорт 1015.3 1002.2
16 15.06 ЮЗ 6
{9}
20 км н/о +21.5 +9.3 46 +23 +23 комфорт 1015.3 1002.2
17 15.06 ЮЗ 5
{9}
20 км н/о +20.9 +8.4 45 +22 +22 комфорт 1015.6 1002.5
18 15.06 ЮЗ 4
{9}
20 км н/о +19.6 +9.4 52 +21 +21 комфорт 1015.8 1002.7 +22.0 0.6
19 15.06
{5}
20 км н/о +18.7 +12.1 65 1016.2 1002.8
20 15.06
{3}
20 км н/о +16.5 +11.6 73 1016.7 1003.2
21 15.06 нст 1
{5}
20 км н/о +15.1 +11.7 80 +16 +16 1017.1 1003.7
22 15.06
{2}
20 км н/о +15.1 +10.6 74 1017.6 1004.2
23 15.06 Ю 2
{3}
20 км н/о +14.7 +9.1 69 +14 +14 1018.2 1004.7
00 16.06 Ю 3
{5}
20 км н/о +14.2 +9.2 72 +13 +13 1018.6 1005.1
01 16.06 ЮЗ 3
{4}
20 км н/о +13.8 +9.0 73 +13 +13 1018.6 1005.1
02 16.06 ЮЗ 3
{5}
20 км н/о +13.1 +9.1 77 +12 +12 1018.6 1005.1
03 16.06 Ю 3
{5}
20 км н/о +12.2 +8.9 80 +11 +11 1019.1 1005.5
04 16.06 Ю 2
{3}
20 км н/о +12.6 +9.4 81 +12 +12 1019.0 1005.5
05 16.06 Ю 3
{5}
20 км н/о +13.3 +10.3 82 +12 +12 1019.7 1006.2
06 16.06 Ю 4
{6}
20 км н/о +14.7 +11.1 79 +13 +13 1019.8 1006.3 +12.0
07 16.06 ЮЗ 6
{8}
20 км н/о +16.0 +11.4 74 +15 +15 1020.0 1006.6
08 16.06 ЮЗ 6
{8}
20 км н/о +16.5 +12.1 75 +15 +15 1020.3 1007.0
09 16.06 ЮЗ 5
{9}
20 км н/о +16.9 +12.2 74 +16 +16 1020.6 1007.2
10 16.06 Ю 5
{9}
20 км н/о +17.5 +12.4 72 +17 +17 1021.1 1007.7
11 16.06 ЮЗ 5
{8}
20 км н/о +18.9 +12.4 66 +19 +19 1021.1 1007.7
12 16.06 ЮЗ 5
{9}
20 км н/о +19.3 +11.8 62 +20 +20 1020.8 1007.7
13 16.06 ЮЗ 5
{8}
19 км н/о +20.5 +11.5 56 +22 +22 комфорт 1021.0 1007.7
14 16.06 ЮЗ 5
{7}
20 км н/о +19.7 +11.3 58 +21 +21 комфорт 1021.1 1007.7
15 16.06 ЮЗ 3
{8}
20 км н/о +20.2 +11.6 58 +22 +22 комфорт 1021.0 1007.7
16 16.06 ЮЗ 4
{8}
20 км н/о +21.2 +11.9 55 +23 +23 комфорт 1020.7 1007.6
17 16.06 ЮЗ 3
{6}
20 км н/о +19.8 +11.6 59 +22 +22 комфорт 1021.0 1007.7
18 16.06 З 4
{9}
15 км слаб. дождь {морось} н/о +15.7 +13.3 86 +15 +15 1021.7 1008.2 +21.7 1
19 16.06
{6}
20 км {дождь} н/о +16.6 +14.8 89 1021.2 1008.0
20 16.06
{1}
20 км н/о +16.2 +14.2 88 1021.5 1008.1
21 16.06 нст 1
{6}
20 км {дождь} н/о +15.6 +13.4 87 +16 +16 1021.7 1008.2
22 16.06
{1}
20 км н/о +15.3 +12.6 84 1021.8 1008.3
23 16.06 20 км н/о +15.1 +12.2 83 1021.6 1008.2
00 17.06 ЮВ 2
{6}
20 км {дождь} н/о +14.9 +11.8 82 +15 +15 1021.7 1008.2 0.0
01 17.06
{3}
20 км н/о +14.9 +11.7 81 1021.3 1007.8
02 17.06 ЮВ 2
{2}
20 км н/о +14.5 +11.5 82 +14 +14 1021.2 1007.7
03 17.06 ЮВ 2
{3}
20 км н/о +14.1 +11.2 83 +14 +14 1021.1 1007.6
04 17.06 ЮВ 3
{4}
20 км н/о +14.1 +11.0 82 +13 +13 1021.2 1007.7
05 17.06 ЮВ 2
{4}
20 км ясно +15.3 +11.2 77 +15 +16 1021.0 1007.6
06 17.06 нст 1
{4}
20 км 1/0
[Ci fib]
+17.1 +12.4 74 +18 +21 1021.1 1007.7 +14.0 0.0
07 17.06 Ю 3
{4}
20 км 1/0
[Ci fib]
+18.9 +13.8 72 +20 +25 1021.1 1007.7
08 17.06 Ю 2
{4}
20 км 3/1 660 м
[Cu hum Ci fib]
+20.1 +13.0 64 +23 +30 комфорт 1020.8 1007.7
09 17.06 Ю 2
{6}
20 км 3/1 800 м
[Cu hum Ci fib]
+21.3 +12.6 58 +24 +34 комфорт 1020.6 1007.5
10 17.06 Ю 3
{6}
20 км 3/1 1000 м
[Cu hum Ci fib]
+22.1 +11.6 51 +24 +35 комфорт 1020.2 1007.2
11 17.06 Ю 2
{6}
20 км 3/1 1230 м
[Cu hum Ci fib]
+23.4 +12.8 51 +26 +41 жарко 1019.7 1006.7
12 17.06 нст 1
{6}
20 км 3/1 1300 м
[Cu hum Ci fib]
+23.5 +13.3 53 +26 +43 жарко 1019.3 1006.3
13 17.06 ЮВ 2
{5}
20 км 3/1 1440 м
[Cu hum Ci fib]
+23.8 +11.8 47 +25 +39 комфорт 1019.0 1006.0
14 17.06
{5}
20 км 3/1 1440 м
[Cu hum Ci fib]
+23.9 +11.0 44 1018.6 1005.6
15 17.06 нст 1
{5}
20 км 3/1 1440 м
[Cu hum Ci fib]
+23.5 +11.1 46 +25 +35 комфорт 1018.2 1005.2
16 17.06
{3}
20 км 3/1 1500 м
[Cu hum Ci fib]
+25.0 +12.0 44 1017.7 1004.7
17 17.06
{2}
20 км н/о +25.2 +12.4 45 1017.2 1004.3
18 17.06 нст 1
{5}
20 км н/о +24.1 +13.0 50 +26 +26 жарко 1017.0 1004.1 +26.2
19 17.06
{2}
20 км н/о +23.6 +12.6 50 1017.0 1004.0
20 17.06
{1}
20 км н/о +21.7 +12.2 55 1017.1 1004.0
21 17.06 нст 1
{2}
20 км н/о +19.7 +12.8 64 +22 +22 комфорт 1017.1 1004.0
22 17.06
{1}
20 км н/о +19.2 +12.5 65 1017.2 1004.0
23 17.06
{1}
20 км н/о +18.7 +12.2 66 1017.2 1004.0
00 18.06 нст 1
{2}
20 км н/о +18.2 +12.4 69 +20 +20 1016.8 1003.6
01 18.06
{1}
20 км н/о +17.7 +12.4 71 1016.7 1003.3
02 18.06
{1}
20 км н/о +18.0 +12.7 71 1016.1 1002.7
03 18.06 нст 1
{1}
18 км н/о +16.4 +12.0 75 +17 +17 1015.8 1002.5
04 18.06
{2}
12 км н/о +14.3 +12.0 86 1016.0 1002.6
05 18.06
{2}
15 км н/о +15.8 +13.8 88 1016.0 1002.6
06 18.06 нст 1
{2}
14 км 4/0
[Ci fib]
+17.0 +14.9 87 +18 +21 1016.0 1002.7 +13.2
07 18.06
{2}
12 км 4/0
[Ci fib]
+19.2 +15.9 81 1016.0 1002.7
08 18.06
{2}
15 км 6/0
[Ci fib]
+20.8 +15.7 73 1015.3 1002.2
09 18.06 нст 1
{2}
15 км 6/0
[Ci fib]
+22.2 +15.0 64 +26 +39 душно 1015.2 1002.1
10 18.06 СВ 2
{3}
15 км 6/0
[Ci fib]
+23.7 +15.6 60 +27 +40 жарко 1014.7 1001.8
11 18.06
{3}
20 км 6/1 1110 м
[Cu hum Ci fib]
+24.5 +15.4 57 1014.6 1001.6
12 18.06 В 2
{4}
20 км 4/1 1200 м
[Cu hum Ci fib]
+24.5 +14.3 53 +27 +42 жарко 1014.1 1001.2
13 18.06
{3}
20 км 6/3 1320 м
[Cu hum Ci fib]
+25.1 +12.4 45 1013.7 1000.8
14 18.06
{3}
20 км 5/1 1350 м
[Cu hum Ci fib]
+25.5 +12.1 43 1013.2 1000.2
15 18.06 нст 2
{3}
20 км 4/1 1440 м
[Cu hum Ci fib]
+26.3 +14.0 47 +29 +37 жарко 1012.6 999.8
16 18.06
{3}
20 км 4/1 1500 м
[Cu hum Ci fib]
+26.5 +13.5 45 1012.0 999.3
17 18.06 В 2
{3}
19 км н/о +26.0 +13.4 46 +28 +28 жарко 1011.5 998.7
18 18.06 В 2
{4}
20 км н/о +24.6 +14.2 52 +27 +27 жарко 1011.2 998.4 +27.6
19 18.06
{2}
20 км н/о +23.8 +14.5 56 1011.2 998.4
20 18.06
{1}
20 км н/о +23.5 +14.4 57 1011.2 998.3
21 18.06 нст 1
{2}
20 км н/о +22.5 +14.4 60 +26 +26 жарко 1011.1 998.1
22 18.06 ЮВ 3
{3}
20 км н/о +21.2 +14.6 66 +24 +24 комфорт 1010.7 997.7
23 18.06
{4}
20 км н/о +20.7 +14.1 66 1010.2 997.1
00 19.06 ЮВ 2
{4}
20 км н/о +19.7 +13.4 67 +22 +22 комфорт 1009.6 996.5
01 19.06 В 2
{3}
20 км н/о +19.5 +12.6 64 +21 +21 комфорт 1009.1 996.0
02 19.06 ЮВ 2
{4}
20 км н/о +19.1 +12.5 66 +21 +21 комфорт 1008.6 995.5
03 19.06 ЮВ 3
{4}
20 км н/о +18.2 +12.8 71 +19 +19 1007.8 994.7
04 19.06 ЮВ 2
{4}
20 км н/о +17.6 +13.1 75 +18 +18 1007.2 994.1
05 19.06 З 3
{9}
20 км н/о +18.2 +14.3 78 +19 +19 1007.5 994.3
06 19.06
{9}
20 км н/о +20.4 +14.9 71 +24 +26 комфорт 1007.3 994.3 +17.3
07 19.06
{3}
15 км 5/1 660 м
[Cu hum Ac trans Ci fib]
+21.6 +15.2 67 1007.3 994.5
08 19.06 С 2
{3}
15 км 6/1 660 м
[Cu med, cong Ac As Ci fib]
+21.2 +15.7 71 +24 +30 комфорт 1007.7 994.8
09 19.06 нст 1
{3}
15 км в посл. час ливневой дождь 6/0
[Ac As Ci fib]
+23.2 +16.5 66 +28 +37 душно 1007.8 995.0
10 19.06 ЮЗ 5
{8}
15 км 8/1 900 м
[Cu med, cong Ac trans Ci fib]
+24.0 +17.1 65 +28 +32 душно 1008.1 995.2
11 19.06
{7}
15 км 8/1 900 м
[Cu hum Ac trans]
+23.2 +17.0 68 1007.8 995.0
12 19.06 Ю 2
{8}
15 км 6/0
[Ac trans Ci fib]
+24.9 +15.7 57 +28 +39 жарко 1007.8 995.1 0.0
14 19.06 Ю 5
{7}
5000 м гроза, ливневой дождь 9/4 400 м
[Cb cap Ac trans Ci fib]
+20.3 +14.2 68 +23 +25 комфорт 1007.2 994.2
15 19.06 Ю 5 8000 м гроза, ливневой дождь 9/6 400 м
[Cb cap Ac trans Ci fib]
+18.2 +15.3 83 +18 +20 1008.0 994.9
16 19.06 Ю 5 7000 м слаб. ливневой дождь {гроза} 9/6 900 м
[Sc Ac trans Ci fib]
+18.5 +15.4 82 +19 +20 1009.0 995.9
17 19.06 20 км {дождь} н/о +16.2 +15.5 96 1008.0 994.8
18 19.06 20 км {дождь} н/о +18.0 +15.9 88 1008.0 994.9 +27.1 9
19 19.06 11 км дождь н/о +17.0 +15.3 90 1008.6 995.4
20 19.06 20 км {дождь} н/о +16.4 +14.6 89 1009.0 995.8
21 19.06 20 км {дождь} н/о +16.0 +14.7 92 1009.3 996.1
22 19.06 20 км н/о +15.6 +14.6 94 1010.0 996.7
23 19.06 10 км н/о +15.8 +14.9 94 1010.2 997.0
00 20.06 4600 м дымка {дождь} н/о +15.8 +15.1 96 1010.5 997.3 1
02 20.06 2900 м дымка н/о +14.8 +14.0 95 1010.8 997.5
03 20.06 2600 м дымка н/о +14.2 +13.4 95 1011.3 998.0
04 20.06 2700 м дымка н/о +14.1 +13.4 96 1011.7 998.3
05 20.06 3500 м дымка н/о +14.6 +13.6 94 1011.7 998.4
06 20.06 ЮЗ 4
{6}
3800 м в посл. час ливневой дождь 9/5 300 м
[Cu med, cong Ac trans Ci fib]
+15.1 +13.7 91 +14 +15 1012.2 998.9 +14.0 1
07 20.06 ЮЗ 4
{6}
6000 м 10/9 300 м
[Sc]
+15.3 +13.3 88 +14 +14 1012.5 999.1
08 20.06 ЮЗ 4
{7}
7000 м 10/9 300 м
[Sc]
+15.6 +13.3 86 +15 +15 1012.7 999.4
09 20.06 ЮЗ 5
{8}
10 км слаб. ливневой дождь 10/6 360 м
[Cu Sc Ac trans]
+16.1 +13.4 84 +15 +16 1012.7 999.5
10 20.06 ЮЗ 4
{7}
15 км в посл. час ливневой дождь 9/6 500 м
[Cu Sc Ac trans]
+17.1 +13.3 78 +17 +19 1013.1 999.9
11 20.06 ЮЗ 4
{7}
15 км в посл. час ливневой дождь 9/6 800 м
[Cu Sc Ac trans Ci fib]
+18.3 +13.0 71 +19 +21 1013.2 1000.0

 

Местоположение метеостанции Бовешен (Бельгия): широта 50.75 долгота 4.77 высота над уровнем моря 127 м.

В архиве по умолчанию представлена погода в Бовешене за последнюю неделю. Архивные данные за месяц целиком и за предыдущие месяцы, начиная с января 2011 года, Вы можете получить, выбрав интересующий диапазон дат из раскрывающегося списка и нажав кнопку "Ввод!".


*Определитесь, кто Вы:
робот инопланетянин человек

Внимание! Время в таблицах - всемирное. Для получения местного времени необходимо прибавить поправку, которая равна 1 ч.

Смотрите также архив погоды в соседних городах и на ближайших метеорологических станциях:

Погода в Эрнаже (Бельгия) (11 км)
Погода в Брюсселе (Бельгия) (24 км)
Погода в Уккеле (Бельгия) (30 км)
Погода в Шаффене (Бельгия) (35 км)
Погода в Шарлеруа (Бельгия) (38 км)
Погода в Бьерсете (Бельгия) (49 км)
Погода в Дипенбеке (Бельгия) (51 км)
Погода в Антверпене (Бельгия) (54 км)
Погода в Ретье (Бельгия) (55 км)
Погода во Флорене (Бельгия) (58 км)

Пояснения к столбцам:

Ветер - указаны скорость ветра в м/с - средняя за 10 мин, порывы в срок и между сроками (в фигурных скобках) и направление, откуда дует ветер: С - северный, СВ - северо-восточный, В - восточный, ЮВ - юго-восточный, Ю - южный, ЮЗ - юго-западный, З - западный, СЗ - северо-западный.
Видимость - горизонтальная дальность видимости в метрах или километрах. При видимости от 1 до 10 км при отсутствии осадков обычно наблюдается дымка, при ухудшении видимости до 1 км и менее - туман. В сухую погоду видимость может ухудшаться дымом, пылью или мглою.
Явления - указаны атмосферные явления, наблюдавшиеся в срок или в последний час перед сроком; фигурными скобками обозначены явления, наблюдавшиеся между сроками (за 1-3 часа до срока); квадратными скобками обозначены град или гололедные отложения с указанием их диаметра в мм.
Облачность - указаны через наклонную черту общая и нижняя облачность в баллах и высота нижней границы облаков в метрах; квадратными скобками обозначены формы облаков: Ci - перистые, Cs - перисто-слоистые, Cc - перисто-кучевые, Ac - высококучевые, As - высокослоистые, Sc - слоисто-кучевые, Ns - слоисто-дождевые, Cu - кучевые, Cb - кучево-дождевые. Подробнее классификацию облаков см. в Атласе облаков (PDF).
T - Температура воздуха - температура, измеренная на высоте 2 м над землей.
Td - Температура точки росы - температура, при понижении до которой содержащийся в воздухе водяной пар достигнет насыщения.
f - Относительная влажность воздуха - влажноcть воздуха, измеренная на высоте 2 м над землей.
Te - Эффективная температура - температура, которую ощущает одетый по сезону человек в тени. Характеристика душности погоды. При расчете учитывается влияние влажности воздуха и скорости ветра на теплоощущения человека.
Tes - Эффективная температура на солнце - температура, которую ощущает человек, с поправкой на солнечный нагрев. Характеристика знойности погоды. Зависит от высоты солнца над горизонтом, облачности и скорости ветра. Ночью, в пасмурную погоду, а также при ветре 12 м/с и более поправка равна нулю.
P - Атмосферное давление - приведенное к уровню моря атмосферное давление.
Po - Атмосферное давление - измеренное на уровне метеостанции атмосферное давление.
Tmin - Минимальная температура - минимум температуры воздуха на высоте 2 м над землей.
Tmax - Максимальная температура - максимум температуры воздуха на высоте 2 м над землей.
R - Количество осадков - Количество выпавших осадков за период времени, мм. При наведении курсора мыши на число - период времени, за который выпало указанное количество осадков.
R24 - Количество осадков - Количество выпавших осадков за 24 часа, мм.
S - Снежный покров - Высота снежного покрова, см. При наведении курсора мыши на число - состояние снежного покрова и степень покрытия местности в баллах.